Location: Unspecified
(44.0704°N, 88.6889°W)
Time: 05:24:00
(UTC+02:00)

Transit 2A - Visible Passes

Search period start: 16 June 2019 00:00
Search period end: 26 June 2019 00:00
Orbit: 593 x 966 km, 66.7° (Epoch: 15 June)

Date Brightness Start Highest point End Pass type
(mag) Time Alt. Az. Time Alt. Az. Time Alt. Az.
16 Jun 6.9 09:10:24 33° S 09:13:00 52° ESE 09:19:08 10° NE visible
16 Jun 7.5 10:50:53 11° WSW 10:56:31 36° NW 11:02:15 10° NNE visible
17 Jun 7.3 08:37:07 31° SSE 08:39:01 38° ESE 08:44:48 10° NE visible
17 Jun 7.1 10:17:35 17° WSW 10:22:13 46° NW 10:28:16 10° NNE visible
18 Jun 7.6 08:03:47 26° SE 08:05:04 27° ESE 08:10:17 10° NE visible
18 Jun 6.7 09:44:15 25° SW 09:47:59 61° NW 09:54:14 10° NNE visible
18 Jun 8.5 11:28:27 10° WNW 11:32:31 17° NNW 11:36:31 10° N visible
19 Jun 8.0 07:30:24 19° ESE 07:31:13 20° ESE 07:35:34 10° ENE visible
19 Jun 6.5 09:10:52 35° SW 09:13:49 81° WNW 09:20:09 10° NNE visible
19 Jun 8.3 10:53:17 10° W 10:58:02 21° NW 11:02:40 10° N visible
20 Jun 8.3 06:56:59 13° ESE 06:57:24 14° E 07:00:18 10° ENE visible
20 Jun 6.4 08:37:27 43° SSW 08:39:42 76° ESE 08:46:01 10° NE visible
20 Jun 8.0 10:18:18 10° W 10:23:36 27° NW 10:28:47 10° NNE visible
21 Jun 6.7 08:03:58 44° SSE 08:05:38 56° ESE 08:11:48 10° NE visible
21 Jun 7.7 09:44:26 14° WSW 09:49:13 34° NW 09:54:51 10° NNE visible
21 Jun 8.8 11:32:39 10° NW 11:34:27 11° NNW 11:36:13 10° N visible
22 Jun 7.0 07:30:27 37° SE 07:31:39 41° ESE 07:37:30 10° NE visible
22 Jun 7.3 09:10:54 20° WSW 09:14:55 44° NW 09:20:52 10° NNE visible
22 Jun 8.7 10:56:51 10° NW 10:59:50 13° NNW 11:02:45 10° N visible
23 Jun 7.4 06:56:50 28° ESE 06:57:42 29° ESE 07:03:02 10° NE visible
23 Jun 6.9 08:37:18 28° WSW 08:40:40 57° NW 08:46:51 10° NNE visible
23 Jun 8.7 10:21:24 10° WNW 10:25:16 16° NNW 10:29:02 10° N visible
24 Jun 7.8 06:23:11 21° ESE 06:23:48 21° ESE 06:28:23 10° ENE visible
24 Jun 6.5 08:03:38 35° SW 08:06:29 76° WNW 08:12:47 10° NNE visible
24 Jun 8.5 09:46:11 10° W 09:50:45 20° NW 09:55:14 10° N visible
25 Jun 8.1 05:49:27 15° ESE 05:49:59 15° ESE 05:53:17 10° ENE visible
25 Jun 6.4 07:29:53 40° SSW 07:32:22 81° ESE 07:38:40 10° NNE visible
25 Jun 8.2 09:11:09 10° W 09:16:19 25° NW 09:21:21 10° NNE visible
